Location: Kam�li
(14.6864°N, 3.1482°W)
Time: 02:27:51
(UTC+00:00)

Cosmos 2219 - Pass Details

Date: 29 October 2020
Orbit: 832 x 862 km, 71.1° (Epoch: 02 December)

Event Time Altitude Azimuth Distance (km) Brightness Sun altitude
Rises 18:12:13 0° 0° (N) 3,430 6.2 -7.2°
Reaches altitude 10° 18:15:00 10° 11° (NNE) 2,492 5.4 -7.9°
Maximum altitude 18:19:56 29° 71° (ENE) 1,511 4.0 -9.0°
Drops below altitude 10° 18:24:49 10° 130° (SE) 2,481 5.3 -10.2°
Sets 18:27:34 0° 141° (SE) 3,413 6.1 -10.9°
